Showing default

SIMSAT 2, 26366

Orbit data source: Space-Track

SIMSAT 2, 26366 is a payload satellite owned by Eurockot (CIS) in LEO that was launched on Tue, 16 May 2000 UTC via an ROKOT launch vehicle from the Plesetsk Missile And Space Complex (PKMTR). Payload-class satellites include a variety of spacecraft equipped with specific instruments for various scientific and technological missions. These include communications satellites like Starlink; space stations such as the ISS; scientific satellites like the Hubble; Earth observation satellites from companies like Planet Labs, Umbra, and HawkEye 360; GPS; miniature CubeSats for education and research; and military/defense satellites.

Loading next visibility...
Identifier
26366, 2000-026B
Orbit
LEO
Country
Flag of CISCIS
Related business
Manufacturer
Khrunichev
Mission
Commercial Technology
Bus & Motor
SIMSAT, Unknown motor
Mass
660 kg wet, 660 kg dry
Launch date (UTC)
2000-05-16 (25 years ago)
Launch vehicle
ROKOT
Launch site
Plesetsk Missile And Space Complex (PKMTR)
Object type
Payload
Rocket body
Debris
Shape & HBR
Box + 1 Arm, 1.8 m
Radar Cross Section
9.625 m², Large (>1 m²)

Expand to show TLE details & history
Last TLE update: 13 hours ago

TLE from 13 hours ago
0 SIMSAT 2
1 26366U 00026B   25310.25403768  .00004364  00000-0  15767-3 0  9993
2 26366  86.3476 237.1499 0008126  47.1756 313.0173 15.28134928409151
Epoch: 2025-11-06T06:05Z
TLE epoch observation values (Epoch: 2025-11-06T06:05:48.855Z)
Latitude
-0.00004°
Longitude
99.98134°
Altitude
480.769 km
Speed
7.627 km/s
True Right ascension
15h 48m 35s
True Declination
0° 00' 00"
Sunlit
Object was in daylight at epoch
Visualization orbit readout
Latitude
Unknown
Longitude
Unknown
Altitude
Unknown
Speed
Unknown
Apparent Right ascension
Unknown
Apparent Declination
Unknown
Sunlit
N/A
Visualization observer readout
Local Sidereal Time
15:30:17
Azimuth
Unknown
Elevation
Unknown
Doppler factor
Unknown
Orbital elements
Apogee altitude
483.794 km
Perigee altitude
472.651 km
Semi-major axis
6,856.359 km
Eccentricity
0.00081
Inclination
86.3476°
RAAN
237.1499°
Arg. of periapsis
47.1756°
True anomaly
312.94917°
Mean anomaly
313.0173°
Eccentric anomaly
312.98324°
Mean motion
3.82299 °/min
Orbital period
94.17 mins
BSTAR
0.00015767
Loading maneuver chart data...
Computing Atmospheric mass density...
Loading historical data...
Loading historical data...
Loading historical data...
Loading historical data...
Loading historical data...
Loading historical data...
Loading historical data...
Other satellites on launch #26 in the year 2000 (2000-05-16 UTC)

Documentation

Showing up to 5 results
|